This is the latest recevied weather packets stored in our database for station/object K4HOG. If no packets are shown the sender has not sent any weather packets the latest 10 day(s).
| Time | Temp. | Humidity | Pressure | Rain* | Wind** | Luminosity | Snow |
|---|---|---|---|---|---|---|---|
| 1778000598 | 28.89° C | 46% | 1016.3 hPa | 0 mm | - | 707 W/m² | - |
| 1778000293 | 28.89° C | 46% | 1016.4 hPa | 0 mm | - | 868 W/m² | - |
| 1777999989 | 28.89° C | 46% | 1016.5 hPa | 0 mm | - | 811 W/m² | - |
| 1777999685 | 28.89° C | 49% | 1016.3 hPa | 0 mm | - | 872 W/m² | - |
| 1777999382 | 28.89° C | 48% | 1016.5 hPa | 0 mm | - | 892 W/m² | - |
| 1777999080 | 28.89° C | 51% | 1016.5 hPa | 0 mm | - | 900 W/m² | - |
| 1777998779 | 28.33° C | 49% | 1016.7 hPa | 0 mm | - | 876 W/m² | - |
| 1777998476 | 28.33° C | 51% | 1016.6 hPa | 0 mm | - | 903 W/m² | - |
| 1777998172 | 28.89° C | 50% | 1016.5 hPa | 0 mm | - | 866 W/m² | - |
| 1777997870 | 28.89° C | 47% | 1016.6 hPa | 0 mm | - | 881 W/m² | - |
| 1777997567 | 28.33° C | 49% | 1016.7 hPa | 0 mm | - | 515 W/m² | - |
| 1777997264 | 27.78° C | 48% | 1016.7 hPa | 0 mm | - | 906 W/m² | - |
| 1777996962 | 27.22° C | 53% | 1016.7 hPa | 0 mm | - | 769 W/m² | - |
| 1777996658 | 28.33° C | 50% | 1016.6 hPa | 0 mm | - | 272 W/m² | - |
| 1777996354 | 27.78° C | 50% | 1016.5 hPa | 0 mm | - | 942 W/m² | - |
| 1777996051 | 27.22° C | 54% | 1016.5 hPa | 0 mm | - | 901 W/m² | - |
| 1777995747 | 27.22° C | 55% | 1016.4 hPa | 0 mm | - | 421 W/m² | - |
| 1777995444 | 27.22° C | 55% | 1016.5 hPa | 0 mm | - | 642 W/m² | - |
| 1777995141 | 27.22° C | 57% | 1016.5 hPa | 0 mm | - | 258 W/m² | - |
| 1777994838 | 26.67° C | 59% | 1016.4 hPa | 0 mm | - | 714 W/m² | - |
| 1777994534 | 26.67° C | 60% | 1016.6 hPa | 0 mm | - | 487 W/m² | - |
| 1777994229 | 26.11° C | 60% | 1016.4 hPa | 0 mm | - | 660 W/m² | - |
| 1777993927 | 26.11° C | 56% | 1016.6 hPa | 0 mm | - | 614 W/m² | - |
| 1777993623 | 26.11° C | 61% | 1016.4 hPa | 0 mm | - | 170 W/m² | - |
| 1777993321 | 26.11° C | 63% | 1016.4 hPa | 0 mm | - | 251 W/m² | - |
* Rain latest hour (hover to see other rain measurements)
** Current wind speed in m/s (hover to see current wind gust speed)